Flag for Australia

Past Weather in Melbourne, Victoria, Australia — Yesterday and Last 2 Weeks

Now
46 °F

Clear.


Feels Like: 43 °F
Forecast: 65 / 46 °F
Wind: 7 mph from Northwest

Location: Melbourne Airport
Current Time: Oct 1, 2020 at 2:40:22 am
Latest Report: Oct 1, 2020 at 2:00 am
Visibility: 10 mi
Pressure29.89 "Hg
Humidity: 82%
Dew Point: 41 °F
Location of MelbourneLocation

Past Weather in Melbourne — Graph

°F

Melbourne Temperature Yesterday

Maximum temperature yesterday: 66 °F (at 2:05 pm)
Minimum temperature yesterday: 50 °F (at 11:30 pm)
Average temperature yesterday: 58 °F

High & Low Weather Summary for the Past Weeks

 TemperatureHumidityPressure
High77 °F (Sep 19, 12:00 pm)100% (Sep 17, 9:00 am)30.39 "Hg (Sep 17, 9:00 am)
Low36 °F (Sep 29, 4:00 am)35% (Sep 16, 1:30 pm)29.56 "Hg (Sep 25, 4:30 am)
Average54 °F71%29.97 "Hg
* Reported Sep 16 1:00 am — Oct 1 1:30 am, Melbourne. Weather by CustomWeather, © 2020

Note: Actual official high and low records may vary slightly from our data, if they occured in-between our weather recording intervals... More about our weather records

Melbourne Weather History for the Previous 24 Hours

Scroll right to see more
 ConditionsComfort  
Time TempWeatherWind HumidityBarometerVisibility
1:30 am
Thu, Oct 1
50 °FPassing clouds.6 mph76%29.89 "HgN/A
1:00 am48 °FPassing clouds.6 mph82%29.89 "HgN/A
12:30 am48 °FClear.5 mph82%29.89 "Hg10 mi
12:00 am48 °FClear.7 mph82%29.86 "Hg10 mi
11:30 pm
Wed, Sep 30
50 °FClear.8 mph82%29.86 "Hg10 mi
11:00 pm52 °FPartly cloudy.8 mph82%29.86 "HgN/A
10:30 pm52 °FLight rain. Passing clouds.16 mph77%29.86 "HgN/A
10:00 pm52 °FPartly cloudy.13 mph88%29.83 "HgN/A
9:30 pm54 °FScattered showers. Partly cloudy.7 mph88%29.83 "HgN/A
9:00 pm55 °FLight rain. Clear.9 mph77%29.80 "HgN/A
8:30 pm55 °FLight rain. Partly cloudy.13 mph82%29.83 "HgN/A
8:00 pm57 °FLight rain. Passing clouds.10 mph82%29.80 "HgN/A
7:30 pm55 °FScattered showers. Partly cloudy.6 mph94%29.77 "HgN/A
7:00 pm57 °FSprinkles. Partly cloudy.7 mph88%29.74 "HgN/A
6:30 pm59 °FRain showers. Partly cloudy.12 mph77%29.74 "Hg4 mi
6:00 pm59 °FSprinkles. Broken clouds.13 mph77%29.74 "HgN/A
5:30 pm61 °FScattered showers. Broken clouds.14 mph68%29.71 "HgN/A
5:00 pm61 °FPartly sunny.13 mph68%29.71 "HgN/A
4:30 pm61 °FPartly sunny.16 mph68%29.71 "HgN/A
4:00 pm63 °FScattered showers. Broken clouds.17 mph64%29.71 "HgN/A
3:30 pm63 °FBroken clouds.20 mph59%29.74 "HgN/A
3:00 pm63 °FBroken clouds.21 mph59%29.74 "HgN/A
2:30 pm63 °FPartly sunny.23 mph59%29.74 "HgN/A
2:05 pm66 °FBroken clouds.22 mph52%29.74 "HgN/A
2:00 pm64 °FBroken clouds.22 mph56%29.74 "HgN/A
1:30 pm63 °FBroken clouds.24 mph59%29.77 "HgN/A
1:00 pm63 °FBroken clouds.22 mph59%29.77 "HgN/A
12:30 pm64 °FBroken clouds.18 mph60%29.77 "HgN/A
12:00 pm63 °FScattered showers. Broken clouds.20 mph59%29.80 "HgN/A
11:30 am61 °FPartly sunny.20 mph68%29.83 "HgN/A
11:16 am61 °FBroken clouds.20 mph68%29.83 "HgN/A
11:00 am59 °FBroken clouds.18 mph68%29.83 "HgN/A
10:30 am59 °FScattered showers. Broken clouds.21 mph72%29.86 "HgN/A
10:00 am59 °FSprinkles. Broken clouds.24 mph72%29.86 "HgN/A
9:30 am59 °FLight rain. Partly sunny.24 mph72%29.86 "HgN/A
9:00 am57 °FScattered showers. Partly sunny.25 mph77%29.86 "HgN/A
8:57 am57 °FPartly sunny.23 mph77%29.86 "HgN/A
8:30 am55 °FLight rain. Broken clouds.21 mph82%29.89 "HgN/A
8:00 am54 °FLight rain. Broken clouds.15 mph88%29.89 "HgN/A
7:30 am54 °FLight rain. Broken clouds.10 mph88%29.92 "HgN/A
7:00 am54 °FLight rain. Partly sunny.15 mph82%29.92 "HgN/A
6:30 am54 °FLight rain. Partly sunny.7 mph82%29.92 "HgN/A
6:00 am54 °FLight rain. Broken clouds.7 mph82%29.89 "HgN/A
5:30 am54 °FLight rain. Clear.2 mph82%29.89 "HgN/A
5:00 am55 °FLight rain. Clear.7 mph67%29.89 "HgN/A
4:30 am57 °FPassing clouds.12 mph63%29.92 "HgN/A
4:00 am57 °FClear.10 mph59%29.89 "Hg10 mi
3:30 am59 °FClear.13 mph55%29.89 "Hg10 mi
3:00 am59 °FClear.12 mph55%29.89 "Hg10 mi
2:30 am57 °FClear.9 mph63%29.92 "Hg10 mi
2:00 am57 °FClear.12 mph63%29.92 "Hg10 mi
Weather by CustomWeather, © 2020

See weather overview